Location: ?ern� Novina
(50.6762°N, 14.8696°E)
Time: 18:07:30
(UTC+00:00)

Cosmos 2242 Rocket - Pass Details

Date: 03 March 2021
Orbit: 617 x 652 km, 82.5° (Epoch: 13 April)

Event Time Altitude Azimuth Distance (km) Brightness Sun altitude
Rises 17:26:31 0° 356° (N) 2,966 7.1 -7.3°
Reaches altitude 10° 17:28:59 10° 6° (N) 2,046 6.2 -7.7°
Maximum altitude 17:33:05 33° 71° (ENE) 1,079 4.3 -8.3°
Drops below altitude 10° 17:37:08 10° 135° (SE) 2,011 5.8 -9.0°
Sets 17:39:32 0° 146° (SE) 2,908 6.7 -9.4°
